Harrisburg, IL

2:50 AM CDT on May 23, 2017 (GMT -0500)
Harrisburg-Raleigh

Weather History for KHSB - March, 2013

Change the Weather History Date:

Monday, March 11, 2013

  Actual Average (KMWA) Record (KMWA)
Temperature  
Mean Temperature 42 °F -  
Max Temperature 50 °F 52 °F 79 °F (1990)
Min Temperature 35 °F 32 °F 14 °F (1998)
Degree Days  
Heating Degree Days 22    
Moisture  
Dew Point 37 °F    
Average Humidity 87    
Maximum Humidity 100    
Minimum Humidity 75    
Precipitation  
Precipitation 0.01 in - - ()
Sea Level Pressure  
Sea Level Pressure 29.83 in    
Wind  
Wind Speed 10 mph (WSW)    
Max Wind Speed 20 mph    
Max Gust Speed 22 mph    
Visibility 10 miles    
Events Rain    
Averages and records for this station are not official NWS values.
T = Trace of Precipitation, MM = Missing Value Source: NWS Daily Summary

Daily Weather History Graph

Daily Weather History Graph

Search for Another Location

Airport or City:

Trip Planner

Search our weather history database for the weather conditions in past years. The results will help you decide how hot, cold, wet, or windy it might be!

Date:

Astronomy

Mar. 11, 2013 Rise Set
Actual Time 7:10 AM CDT 6:57 PM CDT
Civil Twilight 6:44 AM CDT 7:24 PM CDT
Nautical Twilight 6:14 AM CDT 7:54 PM CDT
Astronomical Twilight 5:43 AM CDT 8:25 PM CDT
Moon 6:45 AM CDT (3/11) 7:08 PM CDT (3/11)
Length of Visible Light 12h 39m
Length of Day
11h 46m
Waning Crescent, 0% of the Moon is Illuminated
Mar 11
Waning Crescent
Mar 11
New
Mar 19
First Quarter
Mar 27
Full
Apr 2
Last Quarter

Hourly Weather History & Observations

Time (CDT) Temp. Windchill Dew Point Humidity Pressure Visibility Wind Dir Wind Speed Gust Speed Precip Events Conditions
12:15 AM 50.0 °F - 50.0 °F 100% 29.76 in 10.0 mi SW 6.9 mph - N/A   Overcast
12:35 AM 50.0 °F - 50.0 °F 100% 29.75 in 10.0 mi SSW 10.4 mph - N/A   Overcast
12:55 AM 50.0 °F - 50.0 °F 100% 29.75 in 10.0 mi SSW 10.4 mph - N/A   Overcast
1:15 AM 50.0 °F - 50.0 °F 100% 29.75 in 10.0 mi SSW 11.5 mph - N/A   Overcast
1:35 AM 50.0 °F - 50.0 °F 100% 29.76 in 10.0 mi SSW 11.5 mph - N/A   Overcast
1:55 AM 50.0 °F - 50.0 °F 100% 29.76 in 10.0 mi SW 11.5 mph 17.3 mph N/A   Overcast
2:15 AM 50.0 °F - 50.0 °F 100% 29.75 in 10.0 mi WSW 10.4 mph - N/A   Overcast
2:35 AM 50.0 °F - 48.2 °F 94% 29.75 in 10.0 mi WSW 8.1 mph - N/A   Overcast
2:55 AM 50.0 °F - 46.4 °F 87% 29.74 in 10.0 mi WSW 10.4 mph - N/A   Overcast
3:15 AM 48.2 °F - 46.4 °F 93% 29.73 in 10.0 mi WSW 6.9 mph - N/A   Overcast
3:35 AM 48.2 °F - 44.6 °F 87% 29.72 in 10.0 mi SW 4.6 mph - N/A   Overcast
3:55 AM 46.4 °F 44.3 °F 44.6 °F 93% 29.71 in 10.0 mi SW 4.6 mph - N/A   Overcast
4:15 AM 46.4 °F 42.9 °F 44.6 °F 93% 29.73 in 10.0 mi WSW 6.9 mph - N/A   Overcast
4:35 AM 46.4 °F 42.9 °F 44.6 °F 93% 29.75 in 10.0 mi SW 6.9 mph - N/A   Overcast
4:55 AM 46.4 °F 42.9 °F 44.6 °F 93% 29.76 in 10.0 mi SSW 6.9 mph - N/A   Overcast
5:15 AM 46.4 °F 42.4 °F 44.6 °F 93% 29.75 in 10.0 mi SSW 8.1 mph - N/A   Overcast
5:35 AM 46.4 °F 42.4 °F 44.6 °F 93% 29.74 in 10.0 mi SSW 8.1 mph - N/A   Overcast
5:55 AM 46.4 °F 41.5 °F 42.8 °F 87% 29.74 in 10.0 mi SW 10.4 mph - N/A   Overcast
6:15 AM 44.6 °F 40.2 °F 42.8 °F 93% 29.73 in 10.0 mi SW 8.1 mph - N/A   Overcast
6:35 AM 44.6 °F 39.2 °F 42.8 °F 93% 29.75 in 10.0 mi SW 10.4 mph - N/A   Mostly Cloudy
6:55 AM 44.6 °F 39.2 °F 42.8 °F 93% 29.75 in 10.0 mi SSW 10.4 mph - N/A   Overcast
7:15 AM 44.6 °F 39.2 °F 42.8 °F 93% 29.75 in 10.0 mi SSW 10.4 mph - N/A   Overcast
7:35 AM 44.6 °F 39.2 °F 41.0 °F 87% 29.74 in 10.0 mi SSW 10.4 mph - N/A   Overcast
7:55 AM 42.8 °F 37.0 °F 41.0 °F 93% 29.75 in 10.0 mi SSW 10.4 mph 16.1 mph N/A   Overcast
8:15 AM 42.8 °F 35.8 °F 39.2 °F 87% 29.76 in 10.0 mi West 13.8 mph 19.6 mph N/A   Light Drizzle
8:35 AM 41.0 °F 32.5 °F 37.4 °F 87% 29.77 in 10.0 mi West 17.3 mph 21.9 mph N/A   Overcast
8:55 AM 41.0 °F 33.9 °F 37.4 °F 87% 29.78 in 5.0 mi West 12.7 mph - N/A   Light Drizzle
9:15 AM 39.2 °F 31.2 °F 37.4 °F 93% 29.79 in 7.0 mi West 13.8 mph 19.6 mph N/A   Overcast
9:35 AM 39.2 °F 32.0 °F 37.4 °F 93% 29.80 in 4.0 mi West 11.5 mph - N/A Rain Rain
9:55 AM 39.2 °F 31.6 °F 37.4 °F 93% 29.80 in 4.0 mi West 12.7 mph 17.3 mph 0.01 in Rain Light Rain
10:15 AM 39.2 °F 31.6 °F 37.4 °F 93% 29.80 in 5.0 mi West 12.7 mph - N/A   Drizzle
10:35 AM 39.2 °F 30.2 °F 37.4 °F 93% 29.80 in 7.0 mi West 17.3 mph 20.7 mph N/A   Overcast
10:55 AM 39.2 °F 30.2 °F 37.4 °F 93% 29.80 in 10.0 mi West 17.3 mph - N/A   Overcast
11:15 AM 37.4 °F 27.2 °F 35.6 °F 93% 29.80 in 10.0 mi West 19.6 mph - N/A   Overcast
11:35 AM 37.4 °F 28.2 °F 35.6 °F 93% 29.81 in 10.0 mi West 16.1 mph - N/A   Overcast
11:55 AM 37.4 °F 29.3 °F 33.8 °F 87% 29.82 in 10.0 mi West 12.7 mph - N/A   Overcast
12:15 PM 37.4 °F 29.8 °F 33.8 °F 87% 29.82 in 10.0 mi West 11.5 mph - N/A   Overcast
12:35 PM 37.4 °F 28.9 °F 33.8 °F 87% 29.82 in 10.0 mi West 13.8 mph - N/A   Overcast
12:55 PM - - - N/A% 29.83 in - West 12.7 mph - N/A   Unknown
1:15 PM 37.4 °F 28.5 °F 32.0 °F 81% 29.82 in 10.0 mi WSW 15.0 mph 20.7 mph N/A   Overcast
1:35 PM 37.4 °F 29.3 °F 32.0 °F 81% 29.82 in 10.0 mi WSW 12.7 mph - N/A   Overcast
1:55 PM 39.2 °F 31.2 °F 32.0 °F 75% 29.82 in 10.0 mi WSW 13.8 mph 18.4 mph N/A   Overcast
2:15 PM 37.4 °F 27.8 °F 32.0 °F 81% 29.82 in 10.0 mi West 17.3 mph 20.7 mph N/A   Overcast
2:35 PM 37.4 °F 29.8 °F 32.0 °F 81% 29.83 in 10.0 mi West 11.5 mph 21.9 mph N/A   Overcast
2:55 PM 37.4 °F 28.5 °F 32.0 °F 81% 29.83 in 10.0 mi West 15.0 mph 20.7 mph N/A   Overcast
3:15 PM 37.4 °F 27.5 °F 32.0 °F 81% 29.84 in 10.0 mi West 18.4 mph - N/A   Overcast
3:35 PM 37.4 °F 28.5 °F 32.0 °F 81% 29.84 in 10.0 mi West 15.0 mph - N/A   Overcast
3:55 PM 37.4 °F 28.5 °F 32.0 °F 81% 29.84 in 10.0 mi West 15.0 mph - N/A   Overcast
4:15 PM 37.4 °F 29.3 °F 32.0 °F 81% 29.85 in 10.0 mi West 12.7 mph 18.4 mph N/A   Overcast
4:35 PM 37.4 °F 29.3 °F 32.0 °F 81% 29.85 in 10.0 mi West 12.7 mph 18.4 mph N/A   Overcast
4:55 PM 37.4 °F 29.8 °F 32.0 °F 81% 29.87 in 10.0 mi West 11.5 mph - N/A   Overcast
5:15 PM 37.4 °F 28.9 °F 32.0 °F 81% 29.88 in 10.0 mi West 13.8 mph - N/A   Overcast
5:35 PM 37.4 °F 28.5 °F 32.0 °F 81% 29.89 in 10.0 mi West 15.0 mph - N/A   Overcast
5:55 PM 35.6 °F 26.6 °F 32.0 °F 87% 29.90 in 10.0 mi West 13.8 mph - N/A   Overcast
6:15 PM 35.6 °F 28.0 °F 30.2 °F 81% 29.91 in 10.0 mi West 10.4 mph - N/A   Overcast
6:35 PM 35.6 °F 28.6 °F 30.2 °F 81% 29.91 in 10.0 mi West 9.2 mph - N/A   Overcast
6:55 PM 35.6 °F 29.9 °F 32.0 °F 87% 29.92 in 10.0 mi West 6.9 mph - N/A   Overcast
7:15 PM 35.6 °F 29.2 °F 32.0 °F 87% 29.93 in 10.0 mi West 8.1 mph - N/A   Overcast
7:35 PM 35.6 °F 28.6 °F 30.2 °F 81% 29.93 in 10.0 mi West 9.2 mph - N/A   Overcast
7:55 PM 35.6 °F 29.9 °F 32.0 °F 87% 29.95 in 10.0 mi West 6.9 mph - N/A   Overcast
8:15 PM 35.6 °F 28.6 °F 30.2 °F 81% 29.95 in 10.0 mi West 9.2 mph - N/A   Overcast
8:35 PM 35.6 °F 29.9 °F 30.2 °F 81% 29.96 in 10.0 mi West 6.9 mph - N/A   Overcast
8:55 PM 35.6 °F 28.0 °F 30.2 °F 81% 29.97 in 10.0 mi West 10.4 mph - N/A   Overcast
9:15 PM 35.6 °F 29.9 °F 30.2 °F 81% 29.98 in 10.0 mi West 6.9 mph - N/A   Overcast
9:35 PM 35.6 °F 29.2 °F 30.2 °F 81% 29.98 in 10.0 mi West 8.1 mph - N/A   Overcast
9:55 PM 35.6 °F 29.2 °F 30.2 °F 81% 29.99 in 10.0 mi West 8.1 mph - N/A   Overcast
10:15 PM 35.6 °F 27.5 °F 30.2 °F 81% 30.01 in 10.0 mi West 11.5 mph - N/A   Overcast
10:35 PM 35.6 °F 29.2 °F 30.2 °F 81% 30.01 in 10.0 mi WNW 8.1 mph - N/A   Overcast
10:55 PM 35.6 °F 29.2 °F 30.2 °F 81% 30.01 in 10.0 mi West 8.1 mph - N/A   Overcast
11:15 PM 35.6 °F 26.6 °F 30.2 °F 81% 30.01 in 10.0 mi WNW 13.8 mph 18.4 mph N/A   Overcast
11:35 PM 35.6 °F 28.6 °F 28.4 °F 75% 30.01 in 10.0 mi WNW 9.2 mph - N/A   Overcast
11:55 PM 35.6 °F 28.6 °F 28.4 °F 75% 30.01 in 10.0 mi West 9.2 mph - N/A   Overcast